Torna al catalogo

FENGYUN 1C DEB

AttivoSSO
NORAD 31279·DEBRIS·🇨🇳 China

Lanciato May 10, 1999 da Taiyuan Satellite Launch Center

Loading…

Prossimi Passaggi (prossime 24 ore)

TLE

AggiornatoSource: Space-Track

Epoca: Sep 14, 2026, 06:06 UTC

1 31279U 99025BNM 26257.25430955  .00000697  00000-0  29534-3 0  9990
2 31279  98.5168 263.1620 0074406  91.3439 269.6267 14.26914005 11351

Traccia FENGYUN 1C DEB in tempo reale con AllMySat

Download on the App Store